TimeCST,TemperatureF,Dew PointF,Humidity,Sea Level PressureIn,VisibilityMPH,Wind Direction,Wind SpeedMPH,Gust SpeedMPH,PrecipitationIn,Events,Conditions,WindDirDegrees,DateUTC
12:58 AM,70.7,65.7,84,29.90,6.2,North,5.8,-,N/A,,Overcast,360,2013-01-03 06:58:00
1:58 AM,70.0,65.7,86,29.88,6.2,Variable,4.6,-,N/A,,Overcast,0,2013-01-03 07:58:00
2:58 AM,70.5,65.3,83,29.87,6.2,NNE,3.5,-,N/A,,Overcast,20,2013-01-03 08:58:00
3:58 AM,69.8,64.8,84,29.89,6.2,North,8.1,-,N/A,,Overcast,350,2013-01-03 09:58:00
4:52 AM,69.8,64.4,83,30.03,6.2,NNW,10.4,-,N/A,,Light Drizzle,330,2013-01-03 10:52:00
4:54 AM,69.8,64.4,83,30.03,6.2,NNW,10.4,-,N/A,,Overcast,330,2013-01-03 10:54:00
4:58 AM,69.3,63.7,82,29.92,6.2,NNW,9.2,-,0.00,,Overcast,330,2013-01-03 10:58:00
5:58 AM,69.6,63.0,79,29.93,6.2,North,13.8,-,N/A,,Overcast,350,2013-01-03 11:58:00
6:00 AM,65,63,90,,6,North,4.6,,,,Haze,0,2013-01-03 12:00:00
6:58 AM,68.5,63.9,85,29.97,6.2,North,11.5,-,N/A,,Overcast,360,2013-01-03 12:58:00
7:58 AM,72.7,63.7,73,29.97,6.2,NNW,11.5,-,N/A,,Clear,340,2013-01-03 13:58:00
8:58 AM,76.6,64.2,65,29.95,6.2,NNW,11.5,-,N/A,,Clear,330,2013-01-03 14:58:00
9:00 AM,74,63,60,,6,North,2.3,,,,Haze,0,2013-01-03 15:00:00
9:58 AM,79.3,64.0,59,29.95,6.2,NNW,11.5,-,N/A,,Clear,330,2013-01-03 15:58:00
10:58 AM,82.0,65.1,56,29.92,6.2,NNW,15.0,-,N/A,,Clear,330,2013-01-03 16:58:00
11:37 AM,84.2,62.6,48,30.00,6.2,North,15.0,26.5,N/A,,Clear,350,2013-01-03 17:37:00
11:58 AM,85.3,62.2,46,29.87,6.2,NNW,13.8,-,N/A,,Partly Cloudy,330,2013-01-03 17:58:00
12:00 PM,82,67,51,,6,North,9.2,,,,Haze,0,2013-01-03 18:00:00
12:01 PM,86.0,60.8,43,29.99,6.2,NW,17.3,-,N/A,,Partly Cloudy,310,2013-01-03 18:01:00
12:15 PM,86.0,62.6,45,29.98,6.2,WNW,13.8,20.7,N/A,,Partly Cloudy,300,2013-01-03 18:15:00
12:36 PM,86.0,60.8,43,29.97,6.2,NW,16.1,21.9,N/A,,Clear,310,2013-01-03 18:36:00
12:58 PM,86.7,60.1,41,29.83,6.2,NNW,12.7,23.0,N/A,,Partly Cloudy,330,2013-01-03 18:58:00
1:25 PM,87.8,59.0,38,29.95,6.2,North,12.7,21.9,N/A,,Partly Cloudy,350,2013-01-03 19:25:00
1:33 PM,87.8,59.0,38,29.94,6.2,NW,16.1,21.9,N/A,,Partly Cloudy,320,2013-01-03 19:33:00
1:58 PM,88.2,58.3,36,29.81,6.2,NNW,15.0,20.7,N/A,,Clear,330,2013-01-03 19:58:00
2:58 PM,88.3,59.4,37,29.80,6.2,NNW,18.4,-,N/A,,Scattered Clouds,330,2013-01-03 20:58:00
3:00 PM,78,66,59,,6,North,4.6,,,,Haze,0,2013-01-03 21:00:00
3:58 PM,85.8,62.6,46,29.81,6.2,NNW,15.0,21.9,N/A,,Partly Cloudy,330,2013-01-03 21:58:00
4:58 PM,82.6,64.6,54,29.86,6.2,NNE,13.8,-,N/A,,Scattered Clouds,20,2013-01-03 22:58:00
5:58 PM,77.7,64.6,64,29.89,6.2,North,13.8,-,N/A,,Scattered Clouds,350,2013-01-03 23:58:00
6:00 PM,74,66,71,,6,North,4.6,,,,Haze,0,2013-01-04 00:00:00
6:58 PM,76.5,65.1,68,29.92,6.2,NNW,18.4,-,N/A,,Overcast,330,2013-01-04 00:58:00
7:58 PM,75.6,66.2,73,29.94,6.2,North,16.1,24.2,N/A,,Overcast,350,2013-01-04 01:58:00
8:58 PM,74.1,66.4,77,29.96,6.2,NNW,15.0,-,N/A,,Overcast,340,2013-01-04 02:58:00
9:58 PM,72.9,66.9,82,29.96,6.2,NNW,9.2,-,N/A,,Overcast,340,2013-01-04 03:58:00
10:58 PM,73.0,66.9,81,29.95,6.2,North,11.5,-,N/A,,Overcast,360,2013-01-04 04:58:00
11:58 PM,72.7,66.4,81,29.94,6.2,North,12.7,-,N/A,,Overcast,10,2013-01-04 05:58:00